When you browse on this site, cookies collect data to enhance your experience and personalize the content and advertising you see.
Visit our Privacy Policy to learn more. By continuing to use the site, you agree to this use of cookies and data.
  • In Portugal
  • List of Countries
  • For 7 days
  • Water Temperature
  • Satellite Maps
  • Weather Map
  • Weather Widgets
  • user-avatar
    Login

    Hourly Weather Orsha

    Today, 27 May, Monday

    Time Temperature Precipitation Wind Pressure Humidity
    00:00 +8°C° 0 mm 4 mps 741 mmHg 90%
    01:00 +8°C° 0 mm 4 mps 741 mmHg 91%
    02:00 +7°C° 0 mm 4 mps 741 mmHg 93%
    03:00 +8°C° 0 mm 4 mps 741 mmHg 91%
    04:00 +8°C° 0 mm 5 mps 741 mmHg 90%
    05:00 +9°C° 0 mm 5 mps 741 mmHg 88%
    06:00 +12°C° 0 mm 5 mps 741 mmHg 85%
    07:00 +13°C° 0 mm 6 mps 741 mmHg 81%
    08:00 +15°C° 0 mm 6 mps 741 mmHg 78%
    09:00 +16°C° 0 mm 6 mps 741 mmHg 74%
    10:00 +18°C° 0 mm 7 mps 742 mmHg 71%
    11:00 +20°C° 0 mm 7 mps 742 mmHg 67%
    12:00 +21°C° 0.1 mm 7 mps 742 mmHg 66%
    13:00 +21°C° 0.1 mm 7 mps 742 mmHg 65%
    14:00 +22°C° 0.1 mm 7 mps 741 mmHg 64%
    15:00 +22°C° 0.3 mm 6 mps 741 mmHg 66%
    16:00 +22°C° 0.3 mm 5 mps 741 mmHg 68%
    17:00 +22°C° 0.3 mm 4 mps 741 mmHg 70%
    18:00 +21°C° 0.1 mm 4 mps 741 mmHg 74%
    19:00 +19°C° 0.1 mm 3 mps 742 mmHg 78%
    20:00 +17°C° 0.1 mm 3 mps 742 mmHg 82%
    21:00 +17°C° 0 mm 3 mps 742 mmHg 85%
    22:00 +16°C° 0 mm 3 mps 742 mmHg 88%
    23:00 +14°C° 0 mm 3 mps 742 mmHg 91%

    Tomorrow, 28 May, Tuesday

    Time Temperature Precipitation Wind Pressure Humidity
    00:00 +14°C° 0 mm 3 mps 742 mmHg 92%
    01:00 +14°C° 0 mm 3 mps 742 mmHg 93%
    02:00 +14°C° 0 mm 3 mps 742 mmHg 94%
    03:00 +14°C° 0 mm 3 mps 742 mmHg 94%
    04:00 +14°C° 0 mm 3 mps 742 mmHg 94%
    05:00 +14°C° 0 mm 3 mps 742 mmHg 95%
    06:00 +17°C° 0 mm 4 mps 742 mmHg 91%
    07:00 +19°C° 0 mm 4 mps 742 mmHg 87%
    08:00 +21°C° 0 mm 5 mps 742 mmHg 83%
    09:00 +22°C° 0.4 mm 6 mps 742 mmHg 80%
    10:00 +23°C° 0.4 mm 7 mps 742 mmHg 76%
    11:00 +23°C° 0.4 mm 7 mps 742 mmHg 73%
    12:00 +24°C° 0.1 mm 7 mps 741 mmHg 71%
    13:00 +24°C° 0.1 mm 7 mps 741 mmHg 69%
    14:00 +24°C° 0.1 mm 7 mps 741 mmHg 66%
    15:00 +24°C° 0 mm 6 mps 741 mmHg 68%
    16:00 +25°C° 0 mm 5 mps 741 mmHg 70%
    17:00 +23°C° 0 mm 4 mps 740 mmHg 73%
    18:00 +23°C° 0 mm 5 mps 741 mmHg 73%
    19:00 +22°C° 0 mm 5 mps 741 mmHg 74%
    20:00 +21°C° 0 mm 6 mps 741 mmHg 75%
    21:00 +20°C° 0 mm 5 mps 741 mmHg 76%
    22:00 +20°C° 0 mm 5 mps 741 mmHg 76%
    23:00 +19°C° 0 mm 5 mps 741 mmHg 77%

    Day after tomorrow, 29 May, Wednesday

    Time Temperature Precipitation Wind Pressure Humidity
    00:00 +19°C° 0 mm 5 mps 741 mmHg 80%
    01:00 +19°C° 0 mm 5 mps 741 mmHg 82%
    02:00 +17°C° 0 mm 5 mps 741 mmHg 84%
    03:00 +17°C° 0 mm 6 mps 741 mmHg 85%
    04:00 +17°C° 0 mm 6 mps 741 mmHg 85%
    05:00 +17°C° 0 mm 6 mps 741 mmHg 86%
    06:00 +17°C° 0 mm 6 mps 741 mmHg 83%
    07:00 +19°C° 0 mm 6 mps 742 mmHg 80%
    08:00 +20°C° 0 mm 6 mps 742 mmHg 77%
    09:00 +21°C° 0 mm 7 mps 742 mmHg 74%
    10:00 +22°C° 0 mm 7 mps 742 mmHg 71%
    11:00 +23°C° 0 mm 8 mps 742 mmHg 68%
    12:00 +23°C° 0 mm 8 mps 742 mmHg 68%
    13:00 +24°C° 0 mm 7 mps 742 mmHg 67%
    14:00 +24°C° 0 mm 7 mps 743 mmHg 66%
    15:00 +24°C° 0.6 mm 6 mps 743 mmHg 69%
    16:00 +25°C° 0.6 mm 5 mps 742 mmHg 72%
    17:00 +25°C° 0.6 mm 4 mps 742 mmHg 76%
    18:00 +22°C° 1.4 mm 4 mps 743 mmHg 80%
    19:00 +21°C° 1.4 mm 4 mps 743 mmHg 84%
    20:00 +19°C° 1.4 mm 4 mps 743 mmHg 88%
    21:00 +19°C° 0.2 mm 4 mps 743 mmHg 90%
    22:00 +19°C° 0.2 mm 3 mps 743 mmHg 91%
    23:00 +18°C° 0.2 mm 3 mps 743 mmHg 93%

    30 May, Thursday

    Time Temperature Precipitation Wind Pressure Humidity
    00:00 +18°C° 0 mm 3 mps 743 mmHg 94%
    01:00 +17°C° 0 mm 2 mps 743 mmHg 95%
    02:00 +17°C° 0 mm 2 mps 743 mmHg 96%
    03:00 +17°C° 0 mm 2 mps 744 mmHg 96%
    04:00 +18°C° 0 mm 1 mps 744 mmHg 96%
    05:00 +18°C° 0 mm 1 mps 744 mmHg 97%
    06:00 +18°C° 0.4 mm 1 mps 744 mmHg 95%
    07:00 +19°C° 0.4 mm 1 mps 744 mmHg 93%
    08:00 +19°C° 0.4 mm 2 mps 745 mmHg 92%
    09:00 +20°C° 0.2 mm 2 mps 745 mmHg 88%
    10:00 +21°C° 0.2 mm 2 mps 745 mmHg 84%
    11:00 +23°C° 0.2 mm 2 mps 745 mmHg 80%
    12:00 +23°C° 0.9 mm 2 mps 745 mmHg 80%
    13:00 +22°C° 0.9 mm 3 mps 745 mmHg 79%
    14:00 +24°C° 0.9 mm 3 mps 745 mmHg 79%
    15:00 +22°C° 1.3 mm 3 mps 745 mmHg 80%
    16:00 +22°C° 1.3 mm 3 mps 745 mmHg 81%
    17:00 +23°C° 1.3 mm 2 mps 745 mmHg 82%
    18:00 +21°C° 0.5 mm 2 mps 745 mmHg 85%
    19:00 +20°C° 0.5 mm 2 mps 745 mmHg 89%
    20:00 +19°C° 0.5 mm 2 mps 745 mmHg 92%
    21:00 +18°C° 0 mm 2 mps 745 mmHg 94%
    22:00 +17°C° 0 mm 2 mps 745 mmHg 95%
    23:00 +16°C° 0 mm 2 mps 745 mmHg 96%

    31 May, Friday

    Time Temperature Precipitation Wind Pressure Humidity
    00:00 +16°C° 0 mm 2 mps 745 mmHg 96%
    01:00 +16°C° 0 mm 1 mps 745 mmHg 96%
    02:00 +16°C° 0 mm 1 mps 745 mmHg 96%
    03:00 +16°C° 0 mm 1 mps 745 mmHg 96%
    04:00 +16°C° 0 mm 1 mps 745 mmHg 96%
    05:00 +16°C° 0 mm 1 mps 744 mmHg 96%
    06:00 +19°C° 0.2 mm 1 mps 744 mmHg 93%
    07:00 +20°C° 0.2 mm 1 mps 744 mmHg 89%
    08:00 +21°C° 0.2 mm 1 mps 744 mmHg 86%
    09:00 +23°C° 0.7 mm 2 mps 744 mmHg 80%
    10:00 +25°C° 0.7 mm 3 mps 744 mmHg 75%
    11:00 +26°C° 0.7 mm 5 mps 743 mmHg 69%
    12:00 +26°C° 0.7 mm 5 mps 743 mmHg 70%
    13:00 +26°C° 0.7 mm 5 mps 743 mmHg 72%
    14:00 +26°C° 0.7 mm 5 mps 743 mmHg 73%
    15:00 +25°C° 0.4 mm 4 mps 743 mmHg 77%
    16:00 +25°C° 0.4 mm 4 mps 742 mmHg 80%
    17:00 +23°C° 0.4 mm 4 mps 742 mmHg 84%
    18:00 +22°C° 0.3 mm 4 mps 742 mmHg 86%
    19:00 +21°C° 0.3 mm 4 mps 742 mmHg 88%
    20:00 +20°C° 0.3 mm 4 mps 742 mmHg 90%
    21:00 +20°C° 0.3 mm 3 mps 742 mmHg 91%
    22:00 +19°C° 0.3 mm 3 mps 742 mmHg 92%
    23:00 +18°C° 0.3 mm 3 mps 742 mmHg 93%

    1 June, Saturday

    Time Temperature Precipitation Wind Pressure Humidity
    00:00 +18°C° 0.3 mm 3 mps 742 mmHg 94%
    01:00 +18°C° 0.3 mm 2 mps 742 mmHg 94%
    02:00 +17°C° 0.3 mm 2 mps 742 mmHg 95%
    03:00 +17°C° 0 mm 2 mps 742 mmHg 95%
    04:00 +17°C° 0 mm 2 mps 742 mmHg 95%
    05:00 +17°C° 0 mm 2 mps 743 mmHg 96%
    06:00 +17°C° 0.3 mm 3 mps 743 mmHg 94%
    07:00 +18°C° 0.3 mm 4 mps 744 mmHg 93%
    08:00 +18°C° 0.3 mm 4 mps 744 mmHg 92%
    09:00 +16°C° 0.6 mm 5 mps 745 mmHg 91%
    10:00 +15°C° 0.6 mm 6 mps 745 mmHg 89%
    11:00 +13°C° 0.6 mm 6 mps 745 mmHg 88%
    12:00 +14°C° 0.4 mm 6 mps 745 mmHg 86%
    13:00 +15°C° 0.4 mm 6 mps 746 mmHg 84%
    14:00 +15°C° 0.4 mm 7 mps 746 mmHg 81%
    15:00 +15°C° 0 mm 6 mps 746 mmHg 79%
    16:00 +15°C° 0 mm 6 mps 747 mmHg 77%
    17:00 +16°C° 0 mm 6 mps 747 mmHg 75%
    18:00 +15°C° 0 mm 6 mps 747 mmHg 73%
    19:00 +14°C° 0 mm 6 mps 747 mmHg 71%
    20:00 +13°C° 0 mm 6 mps 748 mmHg 70%
    21:00 +11°C° 0 mm 6 mps 748 mmHg 67%
    22:00 +11°C° 0 mm 7 mps 748 mmHg 64%
    23:00 +11°C° 0 mm 8 mps 749 mmHg 61%
    Show more